Terug naar catalogus

STARLINK-2227

ActiefCommunicatieVLEO
NORAD 48575·PAYLOAD·🇺🇸 United States

Gelanceerd May 15, 2021 vanaf Cape Canaveral Space Force Station

Loading…

Volgende Passages (komende 24 uur)

TLE

VersSource: CelesTrak SupGP

Epoch: Sep 14, 2026, 21:52 UTC

1 48575C 21041Y   26257.91159722  .00054270  00000+0  16379-2 0  2577
2 48575  53.1570 287.3988 0003648  46.4768 317.2026 15.33686936    15

Volg STARLINK-2227 in realtime met AllMySat

Download on the App Store